Wind_Speed
52 54 53 48 48 45 44 43 43 42 42 42 46 49 54 57 56 54 46 49 46 43 40 43 44 49 48 47 47 44 45 44 45 43 41 39 36 37 35 36 35 35 30 27
53 53 51 50 49 48 45 44 44 45 42 41 43 44 47 48 56 60 58 50 48 51 47 44 46 49 51 50 48 46 42 44 45 47 46 45 44 41 40 39 36 35 32 31
49 50 49 48 50 50 48 47 45 45 44 43 45 48 44 44 46 60 65 62 57 55 51 44 53 48 50 53 51 49 45 45 47 49 51 48 47 41 41 38 39 39 39 37
51 51 51 52 52 51 49 46 46 47 48 46 44 56 44 46 44 46 59 66 61 55 53 51 52 51 48 52 52 55 53 50 47 53 51 50 48 45 42 44 45 44 42 39
54 50 49 48 44 45 45 47 46 46 47 49 47 54 53 45 48 44 49 58 66 66 63 55 53 49 49 53 54 57 57 54 49 47 47 47 47 42 45 46 46 47 45 41
53 53 52 48 47 47 48 47 47 49 47 51 48 49 53 45 44 43 46 51 60 61 61 61 60 53 50 49 55 59 56 55 49 48 47 56 54 47 47 44 49 48 46 43
54 53 51 47 46 45 48 49 47 46 49 48 49 48 49 54 43 46 44 44 52 57 56 57 58 53 55 45 52 58 57 55 51 47 47 45 45 50 46 45 45 47 44 42
50 52 52 50 45 43 43 45 46 47 49 48 47 48 47 52 38 39 44 38 49 49 55 60 61 58 52 55 49 54 55 53 54 51 49 50 51 51 48 43 39 41 43 43
49 48 47 47 45 44 43 47 44 48 47 49 48 45 46 47 37 32 34 32 37 42 45 56 63 62 51 54 53 50 53 54 54 55 53 52 50 50 48 45 43 41 43 44
44 47 44 44 47 45 46 45 47 48 47 51 49 46 42 40 38 36 36 36 37 31 36 44 55 57 51 48 59 52 52 54 56 55 50 49 50 54 53 49 49 45 47 47
40 42 45 46 45 43 46 48 49 50 49 50 47 46 41 37 36 33 32 30 25 37 32 45 51 48 50 52 53 53 55 58 58 46 45 49 51 53 53 51 49 47 47 46
38 41 44 43 43 44 46 46 47 48 50 49 47 45 38 36 37 35 31 30 31 33 32 41 46 51 47 42 47 50 58 53 48 43 44 45 48 47 48 47 46 44 43 45
43 42 42 43 41 42 46 46 46 45 44 42 41 41 42 39 37 33 39 40 41 43 43 39 47 48 53 54 45 51 55 57 52 47 45 41 41 43 44 43 41 41 41 43
33 41 41 41 41 37 32 39 44 38 40 43 43 40 36 37 40 38 39 43 47 43 44 48 46 50 52 52 44 46 47 52 52 48 44 43 40 40 43 44 45 44 43 45
36 37 41 44 44 47 44 29 30 35 40 44 38 50 40 43 43 42 46 44 47 46 41 47 48 46 51 49 53 49 45 47 50 47 45 46 40 43 47 47 47 48 48 48
36 33 37 40 46 54 60 52 45 39 33 37 39 44 39 44 49 51 45 43 43 41 41 46 51 52 47 45 49 51 58 49 49 54 51 49 51 43 46 47 52 54 55 55
35 37 37 37 37 44 55 51 54 52 51 45 43 37 36 41 47 50 44 42 42 39 36 40 45 51 53 54 54 49 52 55 52 54 54 45 46 49 51 54 55 57 59 60
39 40 39 36 36 40 39 47 52 52 53 51 53 46 44 52 60 50 49 46 42 40 39 34 37 45 49 55 57 57 53 51 50 48 53 54 53 55 56 55 56 57 56 57
34 39 40 38 43 39 37 37 38 40 42 42 45 46 52 58 51 45 49 49 45 41 39 38 38 38 44 48 57 57 57 50 53 49 52 55 56 53 55 57 55 56 55 55
33 36 41 44 43 42 38 36 38 38 38 41 42 42 41 43 45 42 44 44 42 43 41 38 39 39 40 41 49 59 61 58 51 49 47 50 51 53 53 54 55 54 55 55
34 38 38 39 42 42 39 38 40 41 39 38 39 45 50 49 46 43 41 38 40 40 41 40 40 42 44 43 40 42 53 69 58 54 49 49 48 51 53 52 53 54 56 57
34 35 36 38 40 41 39 40 42 41 43 42 43 44 44 44 42 43 45 39 39 41 40 43 41 43 43 44 44 42 43 52 67 64 62 55 54 51 53 54 54 55 55 57
34 33 33 36 37 38 40 39 40 41 43 43 42 43 45 45 45 46 46 46 46 45 48 43 44 47 43 40 43 44 39 37 46 53 53 54 57 61 62 60 57 58 61 63
32 32 33 34 34 34 35 36 35 36 37 39 40 42 45 46 46 46 46 45 46 48 50 50 48 47 51 51 49 47 45 41 39 40 42 41 43 48 52 56 67 71 74 73
36 35 33 34 34 33 33 33 33 34 35 36 36 39 41 44 46 47 47 48 48 48 50 51 52 52 49 50 52 52 53 52 49 45 46 46 45 43 43 46 50 55 58 59
41 39 38 39 37 36 34 33 33 34 35 36 37 38 40 42 44 46 48 48 48 47 49 51 52 53 55 55 52 54 54 53 54 55 54 53 52 48 47 49 47 46 48 52
Wind_Direction
240 242 247 249 251 253 253 252 253 250 245 240 246 247 249 244 245 248 247 249 250 255 256 255 248 248 248 241 247 247 246 246 247 247 246 248 247 248 250 253 254 257 263 265
244 246 246 247 248 250 252 254 256 256 256 251 249 251 254 252 245 245 246 247 253 256 256 259 258 253 249 246 245 245 246 247 248 248 248 248 249 249 251 254 260 263 265 263
243 245 245 245 249 250 252 256 255 257 256 256 256 257 256 257 248 246 247 250 251 256 254 258 255 255 253 247 240 244 243 246 246 248 247 248 249 252 256 257 257 257 255 258
241 241 242 243 243 247 250 250 252 255 258 260 262 258 254 261 261 256 253 249 250 249 255 262 260 259 263 251 247 238 241 243 243 246 252 250 249 249 253 254 255 258 260 262
244 242 244 245 247 247 248 249 252 255 257 259 261 264 254 259 265 263 264 255 249 248 254 257 258 259 260 250 246 244 239 236 235 240 246 249 247 249 254 256 259 260 260 261
240 239 238 239 237 239 242 245 247 251 254 257 262 265 253 268 271 268 264 262 253 249 250 251 256 254 261 250 244 244 242 239 240 243 245 245 248 255 257 255 258 259 259 261
242 243 244 242 243 242 242 244 248 252 251 258 260 264 265 268 272 271 272 263 247 244 245 247 252 254 256 261 249 240 240 242 241 239 243 247 246 250 253 254 256 256 256 258
243 243 246 248 246 246 245 247 250 256 257 257 258 263 264 268 272 271 275 263 245 242 239 244 250 256 256 262 269 244 244 240 239 241 245 248 251 255 256 253 255 252 252 252
246 247 248 250 247 244 244 246 248 252 256 257 255 255 258 263 262 265 270 267 250 245 240 241 247 254 258 256 265 251 241 239 236 238 241 244 248 250 252 253 249 247 251 255
245 244 241 241 242 240 243 243 243 244 242 252 251 253 256 257 266 267 270 271 265 258 231 235 245 252 255 258 260 254 240 239 238 237 240 244 248 250 250 247 247 250 253 255
246 244 243 240 243 244 244 245 247 248 247 255 254 252 253 254 261 266 262 269 264 251 246 229 242 243 250 256 260 253 231 237 233 234 243 247 249 249 249 245 244 251 253 252
245 243 242 244 242 241 242 244 244 247 249 251 256 247 251 253 255 256 258 253 266 279 263 239 243 244 244 251 257 273 233 227 225 230 238 242 245 246 243 241 245 249 250 248
234 234 234 237 237 238 239 242 245 246 245 247 249 244 246 250 254 250 260 267 266 270 273 262 247 247 246 246 253 270 237 219 221 223 235 239 241 243 245 247 248 245 244 247
233 230 231 235 230 230 236 240 240 241 242 247 245 249 241 243 247 255 261 265 269 267 262 259 259 250 248 249 243 250 246 229 217 221 233 239 243 245 245 247 247 244 245 252
232 231 230 227 225 228 231 222 237 237 245 247 245 246 228 246 253 255 261 261 261 263 265 255 249 248 250 249 249 243 258 245 228 226 229 233 240 249 251 253 255 254 253 255
233 233 229 232 231 230 232 232 236 233 251 249 247 251 247 252 252 252 249 252 256 260 259 256 251 246 249 249 250 250 249 254 250 241 234 239 241 253 257 257 256 256 257 257
237 235 237 236 239 240 242 235 242 246 243 250 251 247 249 240 249 248 249 251 253 256 258 255 255 250 251 252 251 249 250 249 246 251 246 245 247 253 253 255 257 259 257 258
233 235 241 243 243 245 245 241 246 253 252 256 252 251 248 249 258 254 256 248 254 256 261 266 265 257 253 248 253 254 250 249 244 243 243 247 250 250 250 250 252 254 256 257
236 235 237 246 243 246 244 246 250 251 249 254 254 253 250 254 259 258 258 258 260 260 259 261 268 266 260 256 251 249 248 247 250 245 244 248 251 250 248 249 251 252 253 254
236 236 233 237 246 247 242 244 248 249 247 245 247 252 249 255 258 262 258 257 260 259 261 262 264 267 265 266 258 254 251 245 246 242 245 245 247 249 248 248 248 251 253 252
236 237 238 242 246 249 250 250 250 251 253 255 253 251 255 260 259 258 262 261 263 261 256 257 260 262 264 260 260 262 254 249 244 247 251 244 244 243 243 243 243 242 244 247
238 241 243 244 245 245 248 252 253 253 254 254 255 253 254 258 260 261 264 261 256 264 266 255 253 255 260 262 261 262 265 260 250 257 256 253 244 242 244 241 240 243 247 251
238 242 246 246 249 249 252 249 248 250 250 250 250 251 253 255 257 259 263 264 262 257 259 263 265 261 259 260 261 262 266 268 263 259 255 259 261 261 251 245 247 249 251 254
230 230 235 239 241 246 250 254 256 253 251 251 251 252 254 256 256 256 259 262 262 263 261 261 260 261 264 264 262 266 270 268 265 265 263 262 266 266 264 269 263 257 252 254
230 234 238 243 249 251 253 255 257 257 259 259 258 257 257 257 259 259 260 261 261 262 263 262 260 261 261 263 262 260 262 264 264 264 266 273 276 273 272 270 270 271 271 271
234 240 247 248 249 249 247 251 256 261 265 269 271 270 267 266 264 263 264 264 264 262 262 263 264 262 262 262 263 264 261 259 260 263 263 265 269 269 269 271 273 274 275 276
Height
5740 5747 5756 5761 5765 5769 5772 5775 5778 5781 5782 5785 5787 5790 5793 5805 5809 5813 5818 5822 5824 5829 5829 5828 5829 5831 5833 5835 5837 5840 5844 5846 5845 5847 5847 5848 5849 5850 5852 5852 5851 5851 5853 5853
5731 5740 5745 5749 5754 5758 5763 5766 5770 5770 5771 5774 5777 5781 5785 5793 5801 5802 5807 5813 5815 5817 5821 5820 5819 5820 5823 5826 5830 5831 5834 5836 5838 5838 5840 5839 5839 5841 5843 5844 5846 5846 5846 5845
5720 5730 5734 5741 5744 5749 5754 5757 5758 5761 5759 5762 5764 5771 5777 5781 5789 5793 5796 5801 5806 5808 5809 5810 5808 5811 5812 5815 5818 5821 5824 5826 5828 5829 5829 5830 5832 5835 5837 5840 5838 5837 5835 5836
5709 5716 5724 5729 5735 5738 5744 5745 5746 5748 5746 5752 5753 5757 5770 5772 5779 5785 5785 5788 5794 5798 5798 5799 5798 5802 5801 5805 5807 5807 5810 5813 5816 5816 5820 5823 5825 5825 5829 5829 5828 5828 5828 5830
5701 5707 5713 5722 5728 5730 5737 5735 5736 5736 5738 5736 5745 5743 5765 5768 5770 5774 5772 5773 5777 5783 5784 5787 5788 5788 5790 5791 5795 5796 5797 5798 5802 5805 5809 5813 5814 5819 5818 5820 5821 5821 5821 5821
5688 5694 5700 5711 5713 5719 5721 5724 5725 5725 5728 5727 5733 5736 5757 5758 5759 5762 5761 5760 5762 5765 5769 5772 5775 5778 5780 5781 5783 5784 5786 5789 5792 5796 5798 5803 5806 5809 5808 5812 5813 5813 5812 5812
5678 5686 5692 5699 5703 5708 5711 5714 5714 5716 5717 5723 5722 5726 5748 5740 5747 5746 5748 5749 5748 5749 5754 5756 5760 5764 5768 5770 5770 5772 5775 5779 5783 5785 5788 5792 5795 5796 5799 5802 5802 5801 5803 5804
5669 5675 5681 5689 5695 5698 5703 5704 5706 5707 5709 5713 5714 5721 5735 5731 5735 5735 5733 5736 5738 5738 5739 5744 5749 5753 5756 5758 5759 5759 5765 5768 5771 5774 5778 5781 5783 5786 5789 5791 5792 5792 5792 5793
5661 5667 5673 5678 5682 5687 5693 5692 5701 5698 5700 5699 5706 5718 5722 5724 5726 5726 5724 5726 5727 5726 5728 5732 5737 5740 5745 5746 5748 5747 5750 5756 5759 5762 5767 5769 5771 5774 5777 5780 5781 5781 5782 5783
5650 5656 5663 5665 5669 5676 5681 5682 5686 5687 5689 5688 5699 5704 5713 5716 5718 5718 5716 5717 5717 5715 5714 5718 5722 5726 5731 5734 5736 5736 5738 5745 5747 5750 5755 5758 5761 5762 5765 5767 5769 5772 5772 5772
5640 5645 5651 5653 5661 5668 5670 5672 5675 5677 5681 5683 5690 5696 5704 5708 5708 5708 5708 5707 5706 5707 5704 5705 5707 5712 5716 5718 5722 5723 5723 5730 5732 5737 5742 5745 5748 5749 5751 5755 5759 5761 5761 5761
5632 5632 5637 5645 5650 5654 5657 5661 5663 5665 5672 5674 5676 5687 5696 5699 5699 5699 5698 5697 5700 5700 5697 5696 5699 5699 5702 5704 5708 5711 5712 5716 5720 5725 5731 5734 5735 5737 5740 5744 5748 5749 5750 5751
5620 5622 5628 5633 5640 5642 5645 5652 5654 5658 5657 5662 5665 5681 5684 5687 5689 5688 5687 5688 5690 5691 5689 5686 5686 5686 5687 5690 5694 5699 5703 5701 5707 5713 5719 5722 5725 5728 5731 5735 5737 5738 5740 5741
5608 5611 5619 5626 5630 5635 5637 5642 5644 5646 5647 5658 5656 5672 5673 5675 5674 5677 5679 5679 5676 5678 5678 5678 5677 5676 5677 5677 5682 5690 5693 5691 5694 5700 5705 5710 5714 5716 5719 5722 5725 5727 5730 5731
5600 5605 5610 5614 5619 5623 5627 5633 5636 5637 5645 5640 5658 5653 5667 5664 5665 5669 5666 5663 5662 5665 5667 5665 5665 5667 5668 5669 5673 5677 5683 5683 5685 5688 5693 5698 5700 5704 5707 5710 5713 5715 5718 5720
5594 5599 5602 5605 5609 5612 5615 5620 5624 5630 5633 5636 5645 5643 5661 5660 5656 5653 5648 5649 5654 5654 5654 5655 5656 5659 5661 5663 5663 5664 5667 5674 5677 5679 5682 5684 5688 5691 5695 5698 5700 5701 5704 5707
5587 5592 5595 5598 5601 5602 5603 5616 5617 5622 5624 5630 5630 5644 5642 5646 5637 5631 5641 5643 5642 5646 5647 5648 5648 5649 5652 5654 5655 5656 5659 5660 5663 5668 5670 5672 5675 5678 5681 5684 5687 5689 5690 5692
5579 5585 5588 5591 5592 5592 5602 5605 5609 5611 5615 5615 5622 5630 5631 5626 5615 5630 5626 5630 5633 5635 5637 5639 5639 5639 5640 5644 5646 5647 5649 5650 5652 5652 5657 5661 5662 5665 5667 5670 5672 5675 5676 5677
5573 5577 5580 5581 5583 5589 5592 5597 5599 5601 5604 5607 5613 5616 5614 5607 5610 5615 5618 5619 5622 5624 5626 5628 5629 5629 5631 5631 5633 5637 5638 5638 5640 5640 5642 5645 5648 5649 5652 5654 5657 5660 5661 5662
5564 5568 5571 5575 5575 5579 5586 5588 5589 5590 5595 5600 5601 5601 5599 5597 5602 5607 5606 5607 5609 5611 5614 5616 5617 5619 5620 5619 5621 5623 5625 5626 5626 5627 5630 5632 5633 5636 5638 5640 5642 5644 5647 5649
5556 5559 5562 5565 5567 5572 5576 5579 5580 5582 5589 5587 5589 5589 5588 5589 5593 5595 5594 5596 5597 5600 5602 5604 5605 5605 5607 5609 5608 5608 5609 5610 5613 5616 5618 5619 5621 5624 5625 5627 5628 5629 5631 5632
5548 5551 5554 5556 5558 5562 5567 5568 5570 5572 5571 5574 5576 5577 5578 5579 5581 5582 5580 5584 5587 5587 5588 5591 5593 5594 5595 5595 5596 5597 5597 5596 5598 5602 5605 5607 5608 5610 5612 5614 5615 5617 5618 5619
5541 5544 5547 5550 5551 5553 5553 5557 5558 5558 5559 5561 5564 5564 5565 5567 5569 5569 5568 5569 5571 5575 5576 5578 5580 5581 5582 5583 5584 5585 5586 5585 5584 5586 5590 5592 5594 5596 5598 5600 5603 5603 5604 5604
5534 5536 5537 5540 5542 5543 5544 5546 5547 5548 5549 5550 5552 5553 5554 5554 5556 5558 5556 5556 5558 5559 5562 5565 5567 5568 5569 5570 5571 5572 5572 5573 5573 5573 5574 5576 5577 5578 5580 5582 5584 5585 5584 5585
5525 5527 5530 5531 5533 5535 5536 5536 5536 5536 5537 5538 5541 5542 5542 5542 5542 5543 5544 5543 5544 5545 5546 5548 5551 5553 5555 5556 5557 5558 5558 5559 5560 5561 5561 5561 5562 5563 5565 5566 5567 5568 5568 5569
5517 5520 5521 5522 5522 5523 5526 5527 5526 5527 5526 5526 5527 5529 5530 5530 5530 5531 5530 5530 5531 5531 5532 5533 5534 5536 5538 5540 5542 5543 5544 5545 5546 5546 5547 5548 5550 5551 5552 5553 5553 5552 5552 5552